Regional Weather Roundup
Issued by NWS Grand Forks, ND

Home | Current Version | Previous Version | Text Only | Print | Product List | Glossary On
Versions: 1 2 3 4 5 6 7 8 9 10 11 12 13 14 15 16 17 18 19 20 21 22 23 24 25 26 27 28 29 30 31 32 33 34 35 36 37 38 39 40 41 42 43 44 45 46 47 48 49 50
000
ASUS43 KFGF 041231
RWRFGF
PRAIRIE TO PINES  WEATHER ROUNDUP
NATIONAL WEATHER SERVICE EASTERN NORTH DAKOTA/GRAND FORKS ND
700 AM CDT FRI SEP 04 2015

 **SATELLITE DATA USED TO AUGMENT SKY COVER AT AUTOMATED STATIONS**
 *****  WEATHER ACROSS EASTERN NORTH DAKOTA  *****

CITY           SKY/WX    TMP DP  RH WIND       PRES   REMARKS
GRAND FORKS    PTCLDY    72  70  94 SE12      29.76F
6HR MIN TEMP:  73; 6HR MAX TEMP:  77;

GRAND FRKS AFB CLOUDY    73  72  94 SE13      29.77S
GRAND FRKS NWS   N/A     72 N/A N/A SE7         N/A
DEVILS LAKE    CLOUDY    73  66  78 SE8       29.75R
6HR MIN TEMP:  73; 6HR MAX TEMP:  77;

FARGO          PTCLDY    74  71  91 E10       29.76S
WAHPETON ARPT  SUNNY     73  68  83 SE13      29.78S
$$

 ***** WEATHER ACROSS CENTRAL AND WESTERN NORTH DAKOTA  *****

CITY           SKY/WX    TMP DP  RH WIND       PRES   REMARKS
BISMARCK         N/A     71  70  96 NE8       29.73R
6HR MIN TEMP:  71; 6HR MAX TEMP:  79;

MINOT          CLOUDY    68  64  87 NW14      29.77R
6HR MIN TEMP:  65; 6HR MAX TEMP:  69;

JAMESTOWN      CLOUDY    74  72  93 SE10      29.75R FOG
6HR MIN TEMP:  73; 6HR MAX TEMP:  75;

MINOT AFB      CLOUDY    68  68 100 NW10      29.79R
GARRISON         N/A     67  63  87 N14G30    29.71F
WILLISTON      CLOUDY    63  52  67 NE14      29.76F
6HR MIN TEMP:  59; 6HR MAX TEMP:  70; 6HR PCP:  0.02;

DICKINSON      CLOUDY    64  58  80 NE5       29.78R
6HR MIN TEMP:  64; 6HR MAX TEMP:  69;

HETTINGER      CLOUDY    66  60  81 NW6       29.79R
6HR MIN TEMP:  65; 6HR MAX TEMP:  74; 6HR PCP: TRACE;

$$

 *****  OTHER AIRPORT OBSERVATIONS IN OUR AREA  *****

CITY           SKY/WX    TMP DP  RH WIND       PRES   REMARKS
WALHALLA       FAIR      73  73 100 MISG      29.78R
GRAFTON AIRPOR CLOUDY    73  73 100 SE9       29.78S
VALLEY CITY AR CLOUDY    75  75 100 SE9       29.77S FOG
CANDO          CLOUDY    72  72 100 SE5       29.77R FOG
CAVALIER APRT  CLOUDY    73  72  94 SE8       29.77S FOG
GWINNER          N/A     73  73 100 SE7       29.77R
SHEYENNE NWR     N/A     74  73  95 SE10      29.95S
ROLLA          CLOUDY    68  68 100 NW7       29.79R FOG
 ***** THE ABOVE OBSERVATIONS ARE NON NWS ARE NOT QUALITY
       CONTROLLED AND MAY MIS-REPORT RAIN FOR SNOW...
$$

  *****  WEATHER ACROSS NORTHERN MINNESOTA  *****

CITY           SKY/WX    TMP DP  RH WIND       PRES   REMARKS
FLAG ISLAND    CLOUDY    68  63  83 SE10      29.88R
WARROAD        CLOUDY    70  64  83 SE10      29.85F
ROSEAU         CLOUDY    72  64  78 SE12      29.83F
HALLOCK        CLOUDY    72  70  94 CALM      29.78S
THF RVR FALLS  CLEAR     70  70 100 SE13      29.82F
6HR MIN TEMP:  70; 6HR MAX TEMP:  73;

BAUDETTE       CLOUDY    63  59  87 SE8       29.89F
6HR MIN TEMP:  63; 6HR MAX TEMP:  68; 6HR PCP: TRACE;

WASKISH        MOCLDY    61  59  94 CALM      29.90S
CROOKSTON      CLEAR     72  70  94 SE10      29.79F
STEPHEN NDAWN    N/A     70  70 100 SE6         N/A
GREENBUSH NDAW   N/A     72  70  94 SE9         N/A
$$
  *****  WEATHER ACROSS CENTRAL AND WEST MINNESOTA  *****

CITY           SKY/WX    TMP DP  RH WIND       PRES   REMARKS
FOSSTON        CLOUDY    70  66  88 SE9       29.85F
BEMIDJI        CLOUDY    66  64  92 SE12      29.90S
PARK RAPIDS    CLOUDY    68  66  93 SE10      29.89S FOG
6HR MIN TEMP:  68; 6HR MAX TEMP:  73;

ELBOW LAKE     FAIR      73  71  95 SE10G16   29.83R
6HR MIN TEMP:  73; 6HR MAX TEMP:  74;

WADENA         CLOUDY    70  68  94 SE13      29.87S FOG
DETROIT LAKES  CLOUDY    72  68  88 SE15G21   29.84F FOG
MOORHEAD       PTCLDY    73  72  94 SE9       29.79R
FERGUS FALLS   CLEAR     73  73 100 SE13      29.81R
MORRIS MN      CLEAR     73  72  94 SE13      29.81S
STAPLES        CLOUDY    70  66  88 SE9       29.89F FOG
$$
  *****  WEATHER ELSEWHERE ACROSS MINNESOTA  *****

CITY           SKY/WX    TMP DP  RH WIND       PRES   REMARKS
DULUTH         MOCLDY    60  59  96 E10       30.00S FOG
6HR MIN TEMP:  56; 6HR MAX TEMP:  60;

INTRNTL FALLS  MOCLDY    58  57  97 SE6       29.94S
6HR MIN TEMP:  55; 6HR MAX TEMP:  61;

ELY            FOG       50  48  93 CALM      30.02S VSB 1/2
CLOQUET        MOCLDY    61  57  88 E5        30.00R FOG
WHEATON        CLEAR     70  70 100 SE13      29.79F
BRAINERD       PTCLDY    67  64  90 VRB3      29.92R
6HR MIN TEMP:  66; 6HR MAX TEMP:  68;

HIBBING        CLOUDY    63  61  93 SE6       29.99S
6HR MIN TEMP:  51; 6HR MAX TEMP:  62;

ALEXANDRIA     CLOUDY    73  71  93 SE12G21   29.88R
6HR MIN TEMP:  72; 6HR MAX TEMP:  73;

SAINT CLOUD    CLOUDY    69  68  96 SE6       29.90S
6HR MIN TEMP:  68; 6HR MAX TEMP:  71;

MINNEAPOLIS    CLOUDY    71  68  90 SE13      29.93S FOG
6HR MIN TEMP:  71; 6HR MAX TEMP:  73;

$$

  *****  WEATHER ACROSS SOUTH DAKOTA  *****

CITY           SKY/WX    TMP DP  RH WIND       PRES   REMARKS
SIOUX FALLS    MOCLDY    74  66  76 S12       29.83R
6HR MIN TEMP:  74; 6HR MAX TEMP:  77;

BROOKINGS      MOCLDY    72  66  83 S14       29.84R
WATERTOWN      PTCLDY    72  68  87 S10       29.79R
6HR MIN TEMP:  72; 6HR MAX TEMP:  76;

HURON          CLOUDY    73  67  81 S5        29.75R THUNDER
6HR MIN TEMP:  72; 6HR MAX TEMP:  77;

SISSETON         N/A     73  72  96 S8        29.76S
ABERDEEN       CLOUDY    72  69  90 SE5       29.73S
6HR MIN TEMP:  72; 6HR MAX TEMP:  74;

MITCHELL       CLOUDY    74  67  78 SE12      29.75R
PIERRE         LGT RAIN  68  65  90 N7        29.70F
6HR MIN TEMP:  68; 6HR MAX TEMP:  76; 6HR PCP:  0.06;

MOBRIDGE       CLOUDY    72  72 100 SE7       29.71R
RAPID CITY     PTCLDY    66  56  70 CALM      29.79R
6HR MIN TEMP:  63; 6HR MAX TEMP:  73;

$$

  *****  SOME WEATHER IN NEARBY STATES *****

CITY           SKY/WX    TMP DP  RH WIND       PRES   REMARKS
GLASGOW MT     PTCLDY    54  42  64 N15       29.90F
6HR MIN TEMP:  54; 6HR MAX TEMP:  64; 6HR PCP: TRACE;

GREAT FALLS MT CLOUDY    49  46  90 NW5       29.96R
6HR MIN TEMP:  48; 6HR MAX TEMP:  50; 6HR PCP:  0.34;

CHEYENNE WY    CLEAR     55  43  63 W10       30.02R
6HR MIN TEMP:  50; 6HR MAX TEMP:  57;

SCOTTSBLUFF NE CLEAR     54  52  93 E5        29.88S
6HR MIN TEMP:  54; 6HR MAX TEMP:  66;

OMAHA NE       MOCLDY    74  68  81 S10       29.91R
6HR MIN TEMP:  74; 6HR MAX TEMP:  79;

DES MOINES IA  PTCLDY    71  66  84 S8        29.93R
6HR MIN TEMP:  71; 6HR MAX TEMP:  78;

DAVENPORT IA   MOCLDY    69  67  93 SE3       29.98R
6HR MIN TEMP:  67; 6HR MAX TEMP:  73;

CHICAGO IL     PTCLDY    69  66  90 CALM      29.99R
6HR MIN TEMP:  68; 6HR MAX TEMP:  71;

EAU CLAIRE WI  CLOUDY    69  64  84 E7        29.99R
6HR MIN TEMP:  69; 6HR MAX TEMP:  70;

LA CROSSE WI   CLEAR     69  65  86 S6        29.98R FOG
6HR MIN TEMP:  68; 6HR MAX TEMP:  73;

$$

  *****  SOME NATIONAL WEATHER *****

CITY           SKY/WX    TMP DP  RH WIND       PRES   REMARKS
LA GUARDIA NY  MOSUNNY   76  67  73 NE8       30.01R
6HR MIN TEMP:  75; 6HR MAX TEMP:  80;

RALEIGH NC     MOSUNNY   73  69  87 CALM      29.97R
6HR MIN TEMP:  68; 6HR MAX TEMP:  73;

ATLANTA GA     PTCLDY    71  66  84 CALM      30.02R
6HR MIN TEMP:  70; 6HR MAX TEMP:  72;

NEW ORLEANS LA MOCLDY    79  74  84 CALM      29.97R
6HR MIN TEMP:  76; 6HR MAX TEMP:  79;

OKLAHOMA CITY  MOCLDY    68  65  90 SE7       29.94R
6HR MIN TEMP:  68; 6HR MAX TEMP:  73;

ALBUQUERQUE NM CLOUDY    65  49  56 SE6       30.08S
6HR MIN TEMP:  65; 6HR MAX TEMP:  75;

SALT LAKE CITY PTCLDY    73  35  25 S17       29.83R
6HR MIN TEMP:  73; 6HR MAX TEMP:  78;




USA.gov is the U.S. government's official web portal to all federal, state and local government web resources and services.